JA1KWV-11 Weather Reports


Display with metric or nautical units.
time (UTC)temp
F
wind
direction
speed
MPH
gust
MPH
rain 1hr
in
rain 24hr
in
rain mn
in
humidity
%
barometer
mb
20260509031153 78 267 0.0 0.0 0.00 0.00 0.00 58 1010.8
20260509030353 78 267 0.0 0.0 0.00 0.00 0.00 58 1010.7
20260509025552 78 267 0.0 0.0 0.00 0.00 0.00 58 1010.4
20260509024752 78 267 0.0 0.0 0.00 0.00 0.00 58 1010.3
20260509023952 78 267 0.0 0.0 0.00 0.00 0.00 58 1010.7
20260509023152 78 267 0.0 0.0 0.00 0.00 0.00 58 1010.7
20260509022352 78 267 0.0 0.0 0.00 0.00 0.00 59 1010.6
20260509021551 78 267 0.0 0.0 0.00 0.00 0.00 58 1010.6
20260509020751 78 267 0.0 0.0 0.00 0.00 0.00 59 1010.5
20260509015951 78 267 0.0 0.0 0.00 0.00 0.00 59 1010.4
20260509015151 78 267 0.0 0.0 0.00 0.00 0.00 59 1010.4
20260509014350 78 267 0.0 0.0 0.00 0.00 0.00 58 1010.5
20260509013550 78 267 0.0 0.0 0.00 0.00 0.00 58 1010.3
20260509012750 78 267 0.0 0.0 0.00 0.00 0.00 58 1010.6
20260509011950 78 267 0.0 0.0 0.00 0.00 0.00 59 1010.6
20260509011150 78 267 0.0 0.0 0.00 0.00 0.00 59 1010.5
20260509010349 78 267 0.0 0.0 0.00 0.00 0.00 58 1010.6
20260509005549 78 267 0.0 0.0 0.00 0.00 0.00 59 1009.7
20260509004749 78 267 0.0 0.0 0.00 0.00 0.00 59 1009.8
20260509003949 78 267 0.0 0.0 0.00 0.00 0.00 60 1009.8
20260509003149 78 267 0.0 0.0 0.00 0.00 0.00 62 1010.1
20260509002348 79 267 0.0 0.0 0.00 0.00 0.00 62 1010.1
20260509001548 79 267 0.0 0.0 0.00 0.00 0.00 63 1009.8
20260509000748 79 267 0.0 0.0 0.00 0.00 0.00 65 1009.9
20260508235948 79 267 0.0 0.0 0.00 0.00 0.00 65 1009.8
20260508235147 79 267 0.0 0.0 0.00 0.00 0.00 64 1009.5
20260508234347 79 267 0.0 0.0 0.00 0.00 0.00 66 1009.6
20260508233547 79 267 0.0 0.0 0.00 0.00 0.00 65 1009.5
20260508232747 79 267 0.0 0.0 0.00 0.00 0.00 67 1009.4
20260508231947 79 267 0.0 0.0 0.00 0.00 0.00 68 1009.3
20260508231146 78 267 0.0 0.0 0.00 0.00 0.00 67 1009.2
20260508230346 78 267 0.0 0.0 0.00 0.00 0.00 69 1008.9
20260508225546 78 267 0.0 0.0 0.00 0.00 0.00 70 1008.7
20260508224746 78 267 0.0 0.0 0.00 0.00 0.00 69 1008.7
20260508223945 78 267 0.0 0.0 0.00 0.00 0.00 70 1008.7
20260508223145 78 267 0.0 0.0 0.00 0.00 0.00 70 1008.5
20260508222345 78 267 0.0 0.0 0.00 0.00 0.00 70 1008.1
20260508221545 78 267 0.0 0.0 0.00 0.00 0.00 69 1008.1
20260508220745 78 267 0.0 0.0 0.00 0.00 0.00 70 1008.0
20260508215944 78 267 0.0 0.0 0.00 0.00 0.00 69 1008.0
20260508215144 78 267 0.0 0.0 0.00 0.00 0.00 70 1007.8
20260508214344 77 267 0.0 0.0 0.00 0.00 0.00 70 1007.5
20260508213544 77 267 0.0 0.0 0.00 0.00 0.00 70 1007.4
20260508212743 78 267 0.0 0.0 0.00 0.00 0.00 69 1007.5
20260508211943 77 267 0.0 0.0 0.00 0.00 0.00 70 1007.2
20260508211143 78 267 0.0 0.0 0.00 0.00 0.00 69 1007.1
20260508210343 78 267 0.0 0.0 0.00 0.00 0.00 69 1007.0
20260508205543 78 267 0.0 0.0 0.00 0.00 0.00 70 1006.8
20260508204742 77 267 0.0 0.0 0.00 0.00 0.00 69 1006.5
20260508203942 78 267 0.0 0.0 0.00 0.00 0.00 69 1006.5
20260508203142 77 267 0.0 0.0 0.00 0.00 0.00 69 1006.3
20260508202342 78 267 0.0 0.0 0.00 0.00 0.00 69 1006.3
20260508201542 78 267 0.0 0.0 0.00 0.00 0.00 69 1006.2
20260508200741 78 267 0.0 0.0 0.00 0.00 0.00 69 1005.9
20260508195941 78 267 0.0 0.0 0.00 0.00 0.00 69 1006.0
20260508195141 78 267 0.0 0.0 0.00 0.00 0.00 68 1005.9
20260508194341 78 267 0.0 0.0 0.00 0.00 0.00 69 1005.6
20260508193540 78 267 0.0 0.0 0.00 0.00 0.00 70 1005.3
20260508192740 78 267 0.0 0.0 0.00 0.00 0.00 68 1005.2
20260508191940 78 267 0.0 0.0 0.00 0.00 0.00 68 1005.0
20260508191140 78 267 0.0 0.0 0.00 0.00 0.00 68 1005.1
20260508190340 78 267 0.0 0.0 0.00 0.00 0.00 68 1004.9
20260508185539 78 267 0.0 0.0 0.00 0.00 0.00 68 1005.0
20260508184739 78 267 0.0 0.0 0.00 0.00 0.00 68 1004.7
20260508183939 78 267 0.0 0.0 0.00 0.00 0.00 68 1004.8
20260508183139 78 267 0.0 0.0 0.00 0.00 0.00 68 1004.9
20260508182338 78 267 0.0 0.0 0.00 0.00 0.00 68 1004.8
20260508181538 78 267 0.0 0.0 0.00 0.00 0.00 67 1004.7
20260508180738 78 267 0.0 0.0 0.00 0.00 0.00 68 1004.5
20260508175938 78 267 0.0 0.0 0.00 0.00 0.00 68 1004.4
20260508175138 78 267 0.0 0.0 0.00 0.00 0.00 68 1004.3
20260508174337 78 267 0.0 0.0 0.00 0.00 0.00 68 1004.3
20260508173537 78 267 0.0 0.0 0.00 0.00 0.00 67 1004.2
20260508172737 78 267 0.0 0.0 0.00 0.00 0.00 67 1004.1
20260508171937 78 267 0.0 0.0 0.00 0.00 0.00 68 1004.3
20260508171136 78 267 0.0 0.0 0.00 0.00 0.00 65 1004.1
20260508170336 78 267 0.0 0.0 0.00 0.00 0.00 67 1004.1
20260508165536 78 267 0.0 0.0 0.00 0.00 0.00 67 1003.9
20260508164736 78 267 0.0 0.0 0.00 0.00 0.00 66 1003.9
20260508163936 78 267 0.0 0.0 0.00 0.00 0.00 66 1003.6
20260508163135 78 267 0.0 0.0 0.00 0.00 0.00 66 1003.7
20260508162335 78 267 0.0 0.0 0.00 0.00 0.00 65 1003.5
20260508161535 78 267 0.0 0.0 0.00 0.00 0.00 65 1003.4
20260508160735 78 267 0.0 0.0 0.00 0.00 0.00 64 1003.5
20260508155935 78 267 0.0 0.0 0.00 0.00 0.00 64 1003.3
20260508155134 78 267 0.0 0.0 0.00 0.00 0.00 62 1003.5
20260508154334 79 267 0.0 0.0 0.00 0.00 0.00 63 1003.6
20260508153534 79 267 0.0 0.0 0.00 0.00 0.00 67 1003.4
20260508152734 79 267 0.0 0.0 0.00 0.00 0.00 67 1003.6
20260508151933 79 267 0.0 0.0 0.00 0.00 0.00 67 1003.6
20260508151133 79 267 0.0 0.0 0.00 0.00 0.00 68 1003.6
20260508150333 79 267 0.0 0.0 0.00 0.00 0.00 68 1003.3
20260508145533 79 267 0.0 0.0 0.00 0.00 0.00 69 1003.1
20260508144732 79 267 0.0 0.0 0.00 0.00 0.00 68 1003.0
20260508143932 79 267 0.0 0.0 0.00 0.00 0.00 69 1003.0
20260508143132 79 267 0.0 0.0 0.00 0.00 0.00 70 1002.9
20260508142332 79 267 0.0 0.0 0.00 0.00 0.00 73 1002.7
20260508141532 79 267 0.0 0.0 0.00 0.00 0.00 72 1002.8
20260508140731 79 267 0.0 0.0 0.00 0.00 0.00 74 1002.6
20260508135931 79 267 0.0 0.0 0.00 0.00 0.00 74 1002.6
20260508135131 79 267 0.0 0.0 0.00 0.00 0.00 74 1002.4
20260508134331 79 267 0.0 0.0 0.00 0.00 0.00 74 1002.4
20260508133531 79 267 0.0 0.0 0.00 0.00 0.00 73 1002.0
20260508132730 79 267 0.0 0.0 0.00 0.00 0.00 74 1001.7
20260508131930 79 267 0.0 0.0 0.00 0.00 0.00 74 1001.6
20260508131130 79 267 0.0 0.0 0.00 0.00 0.00 74 1001.5
20260508130330 79 267 0.0 0.0 0.00 0.00 0.00 75 1001.8
20260508125529 80 267 0.0 0.0 0.00 0.00 0.00 75 1001.8
20260508124729 79 267 0.0 0.0 0.00 0.00 0.00 74 1001.6
20260508123929 79 267 0.0 0.0 0.00 0.00 0.00 75 1001.7
20260508123129 79 267 0.0 0.0 0.00 0.00 0.00 75 1001.5
20260508122328 79 267 0.0 0.0 0.00 0.00 0.00 75 1001.4
20260508121528 79 267 0.0 0.0 0.00 0.00 0.00 76 1001.3
20260508120728 80 267 0.0 0.0 0.00 0.00 0.00 76 1001.2
20260508115928 80 267 0.0 0.0 0.00 0.00 0.00 75 1001.1
20260508115128 79 267 0.0 0.0 0.00 0.00 0.00 75 1000.9
20260508114327 79 267 0.0 0.0 0.00 0.00 0.00 75 1000.9
20260508113527 80 267 0.0 0.0 0.00 0.00 0.00 76 1001.0
20260508112727 80 267 0.0 0.0 0.00 0.00 0.00 76 1001.2
20260508111927 80 267 0.0 0.0 0.00 0.00 0.00 76 1001.1
20260508111126 80 267 0.0 0.0 0.00 0.00 0.00 76 1001.1
20260508110326 80 267 0.0 0.0 0.00 0.00 0.00 76 1000.8
20260508105526 80 267 0.0 0.0 0.00 0.00 0.00 75 1000.7
20260508104726 80 267 0.0 0.0 0.00 0.00 0.00 76 1000.5
20260508103926 80 267 0.0 0.0 0.00 0.00 0.00 75 1000.2
20260508103125 80 267 0.0 0.0 0.00 0.00 0.00 75 1000.4
20260508102325 80 267 0.0 0.0 0.00 0.00 0.00 75 1000.5
20260508101525 80 267 0.0 0.0 0.00 0.00 0.00 76 1000.3
20260508100725 80 267 0.0 0.0 0.00 0.00 0.00 76 1000.3
20260508095925 80 267 0.0 0.0 0.00 0.00 0.00 76 1000.4
20260508095124 80 267 0.0 0.0 0.00 0.00 0.00 76 1000.6
20260508094324 80 267 0.0 0.0 0.00 0.00 0.00 76 1000.8
20260508093524 80 267 0.0 0.0 0.00 0.00 0.00 76 1000.7
20260508092724 80 267 0.0 0.0 0.00 0.00 0.00 75 1000.3
20260508091923 80 267 0.0 0.0 0.00 0.00 0.00 77 1000.3
20260508091123 80 267 0.0 0.0 0.00 0.00 0.00 76 1000.4
20260508090323 80 267 0.0 0.0 0.00 0.00 0.00 75 1000.4
20260508085523 80 267 0.0 0.0 0.00 0.00 0.00 76 1000.4
20260508084723 80 267 0.0 0.0 0.00 0.00 0.00 77 1000.5
20260508083922 80 267 0.0 0.0 0.00 0.00 0.00 77 1000.5
20260508083122 80 267 0.0 0.0 0.00 0.00 0.00 77 1000.6
20260508082322 80 267 0.0 0.0 0.00 0.00 0.00 76 1000.8
20260508081522 80 267 0.0 0.0 0.00 0.00 0.00 77 1000.9
20260508080721 80 267 0.0 0.0 0.00 0.00 0.00 77 1000.8
20260508075921 80 267 0.0 0.0 0.00 0.00 0.00 76 1001.1
20260508075121 80 267 0.0 0.0 0.00 0.00 0.00 77 1000.9
20260508074321 80 267 0.0 0.0 0.00 0.00 0.00 77 1000.9
20260508073521 80 267 0.0 0.0 0.00 0.00 0.00 77 1001.0
20260508072720 80 267 0.0 0.0 0.00 0.00 0.00 76 1001.0
20260508071920 80 267 0.0 0.0 0.00 0.00 0.00 77 1001.3
20260508071120 80 267 0.0 0.0 0.00 0.00 0.00 77 1001.3
20260508070320 80 267 0.0 0.0 0.00 0.00 0.00 77 1001.3
20260508065519 80 267 0.0 0.0 0.00 0.00 0.00 77 1001.4
20260508064719 80 267 0.0 0.0 0.00 0.00 0.00 78 1001.5
20260508063919 80 267 0.0 0.0 0.00 0.00 0.00 77 1001.9
20260508063119 80 267 0.0 0.0 0.00 0.00 0.00 77 1002.0
20260508062319 80 267 0.0 0.0 0.00 0.00 0.00 79 1001.9
20260508061518 81 267 0.0 0.0 0.00 0.00 0.00 79 1001.8
20260508060718 81 267 0.0 0.0 0.00 0.00 0.00 78 1001.9
20260508055918 80 267 0.0 0.0 0.00 0.00 0.00 79 1002.2
20260508055118 81 267 0.0 0.0 0.00 0.00 0.00 78 1002.4
20260508054317 80 267 0.0 0.0 0.00 0.00 0.00 78 1002.2
20260508053517 80 267 0.0 0.0 0.00 0.00 0.00 79 1002.4
20260508052717 80 267 0.0 0.0 0.00 0.00 0.00 78 1002.8
20260508051917 80 267 0.0 0.0 0.00 0.00 0.00 78 1002.9
20260508051117 80 267 0.0 0.0 0.00 0.00 0.00 78 1003.2
20260508050316 80 267 0.0 0.0 0.00 0.00 0.00 79 1003.1
20260508045516 80 267 0.0 0.0 0.00 0.00 0.00 78 1003.1
20260508044716 80 267 0.0 0.0 0.00 0.00 0.00 79 1003.2
20260508043916 80 267 0.0 0.0 0.00 0.00 0.00 79 1003.2
20260508043115 80 267 0.0 0.0 0.00 0.00 0.00 79 1003.2
20260508042315 80 267 0.0 0.0 0.00 0.00 0.00 79 1003.5
20260508041515 80 267 0.0 0.0 0.00 0.00 0.00 79 1003.8
20260508040715 80 267 0.0 0.0 0.00 0.00 0.00 78 1004.2
20260508035915 80 267 0.0 0.0 0.00 0.00 0.00 78 1004.1
20260508035114 80 267 0.0 0.0 0.00 0.00 0.00 78 1004.1
20260508034314 80 267 0.0 0.0 0.00 0.00 0.00 79 1004.1
20260508033514 80 267 0.0 0.0 0.00 0.00 0.00 79 1004.2
20260508032714 80 267 0.0 0.0 0.00 0.00 0.00 78 1004.4
20260508031914 80 267 0.0 0.0 0.00 0.00 0.00 78 1004.5